Tracking 19245 objects as of 18-Aug-2018
HD Live streaming from Space Station
objects crossing your sky now

SL-23 DEB

Track SL-23 DEB now!


NORAD ID: 35577
Int'l Code: 2009-009C
Perigee: 1,072.6 km
Apogee: 36,028.3 km
Inclination: 35.1 °
Period: 652.6 minutes
Semi major axis: 24921 km
RCS: 0.1999 m2 (medium)
Launch date: February 26, 2009
Source: Commonwealth of Independent States (former USSR) (CIS)
Launch site: TYURATAM MISSILE AND SPACE COMPLEX (TTMTR)

Note: This is SATELLITE DEBRIS
aabbcc
Your satellite tracking list
Your tracking list is empty




NASA's NSSDC Master Catalog

Two Line Element Set (TLE):
1 35577U 09009C   18226.46788073 -.00000123  00000-0  10000-3 0  9998
2 35577  35.1394 283.6071 7013189 183.6205 165.6348  2.20670120 74694
Source of the keplerian elements: AFSPC